Total_Precipitation_Accumulation
1.56 1.58 1.55 1.50 1.45 1.45 1.48 1.44 1.30 1.19 1.07 0.96 0.89 0.89 0.88 0.82 0.80 0.88 0.91 0.96 1.06 1.09 1.05 1.07 1.12 1.21 1.31 1.38 1.49 1.62 1.81 1.97 1.98 1.65 1.38 1.28 1.34 1.41 1.48 1.45 1.37 1.28 1.20
1.36 1.37 1.40 1.27 1.20 1.19 1.17 1.17 1.11 1.09 1.05 0.99 0.93 0.91 0.83 0.77 0.79 0.80 0.79 0.79 0.85 0.91 0.94 0.99 0.94 0.99 1.12 1.22 1.33 1.42 1.55 1.70 1.84 1.75 1.49 1.37 1.36 1.44 1.52 1.54 1.37 1.23 1.13
1.09 1.16 1.23 1.15 1.06 1.05 1.01 1.01 1.04 1.03 1.01 0.96 0.92 0.85 0.78 0.76 0.79 0.78 0.75 0.74 0.72 0.73 0.81 0.90 0.93 1.02 1.10 1.20 1.33 1.36 1.44 1.48 1.68 1.69 1.52 1.45 1.43 1.45 1.59 1.53 1.32 1.30 1.02
0.93 0.92 0.98 1.02 0.99 0.96 0.96 0.95 0.91 0.88 0.87 0.82 0.77 0.75 0.74 0.70 0.65 0.63 0.63 0.65 0.69 0.70 0.73 0.77 0.83 0.97 1.09 1.23 1.29 1.37 1.49 1.59 1.67 1.72 1.65 1.63 1.61 1.57 1.65 1.69 1.52 1.36 1.14
0.96 0.93 0.92 0.94 0.89 0.89 0.93 0.92 0.82 0.79 0.73 0.69 0.66 0.65 0.65 0.61 0.56 0.57 0.60 0.61 0.70 0.74 0.77 0.76 0.73 0.81 0.96 1.05 1.10 1.29 1.56 1.73 1.73 1.76 1.72 1.72 1.70 1.76 1.68 1.61 1.57 1.43 1.20
1.04 1.06 1.02 1.01 0.95 0.90 0.90 0.89 0.83 0.82 0.76 0.67 0.68 0.65 0.58 0.48 0.50 0.52 0.54 0.60 0.67 0.73 0.81 0.79 0.69 0.66 0.70 0.77 0.85 0.99 1.23 1.50 1.68 1.75 1.71 1.69 1.66 1.71 1.70 1.61 1.62 1.59 1.43
1.04 1.00 1.03 1.05 0.96 0.87 0.82 0.91 0.90 0.87 0.77 0.70 0.69 0.66 0.59 0.50 0.47 0.45 0.46 0.51 0.63 0.72 0.80 0.82 0.68 0.59 0.70 0.79 0.81 0.81 0.89 1.09 1.40 1.65 1.69 1.58 1.66 1.74 1.79 1.78 1.68 1.68 1.60
0.99 0.94 0.92 0.95 0.95 0.87 0.84 0.86 0.85 0.86 0.84 0.75 0.69 0.69 0.69 0.50 0.46 0.44 0.46 0.54 0.65 0.68 0.70 0.75 0.80 0.81 0.72 0.72 0.78 0.92 1.09 1.18 1.26 1.32 1.50 1.53 1.55 1.57 1.56 1.59 1.62 1.64 1.51
0.88 0.87 0.81 0.78 0.76 0.73 0.72 0.75 0.83 0.86 0.86 0.75 0.69 0.74 0.70 0.54 0.46 0.45 0.47 0.56 0.65 0.65 0.59 0.58 0.62 0.70 0.67 0.72 0.88 1.12 1.32 1.49 1.36 1.32 1.41 1.56 1.56 1.40 1.24 1.33 1.58 1.67 1.51
0.73 0.66 0.65 0.66 0.66 0.68 0.70 0.73 0.73 0.79 0.82 0.70 0.62 0.64 0.59 0.49 0.43 0.42 0.47 0.53 0.61 0.61 0.63 0.61 0.66 0.66 0.67 0.82 0.99 1.29 1.52 1.63 1.47 1.39 1.51 1.65 1.58 1.46 1.38 1.44 1.64 1.64 1.52
0.54 0.51 0.55 0.55 0.55 0.55 0.64 0.68 0.67 0.67 0.72 0.70 0.62 0.58 0.51 0.41 0.37 0.40 0.42 0.43 0.50 0.58 0.63 0.71 0.77 0.78 0.73 0.83 1.01 1.24 1.46 1.53 1.48 1.44 1.46 1.50 1.55 1.57 1.47 1.44 1.49 1.46 1.46
0.46 0.46 0.47 0.46 0.40 0.41 0.56 0.58 0.59 0.66 0.64 0.63 0.66 0.63 0.50 0.40 0.31 0.27 0.29 0.33 0.40 0.58 0.69 0.73 0.77 0.79 0.79 0.91 1.04 1.26 1.47 1.60 1.51 1.38 1.28 1.26 1.27 1.33 1.31 1.19 1.15 1.15 1.20
0.46 0.50 0.46 0.40 0.39 0.38 0.44 0.47 0.49 0.57 0.56 0.52 0.55 0.53 0.45 0.38 0.28 0.19 0.19 0.24 0.33 0.45 0.62 0.77 0.78 0.74 0.88 1.15 1.32 1.45 1.62 1.70 1.55 1.32 1.23 1.15 1.09 1.07 1.05 1.08 1.06 1.01 0.96
0.51 0.51 0.48 0.46 0.43 0.35 0.34 0.33 0.33 0.36 0.40 0.46 0.47 0.46 0.42 0.38 0.27 0.21 0.23 0.26 0.32 0.39 0.52 0.71 0.85 0.91 1.06 1.32 1.55 1.67 1.73 1.67 1.46 1.27 1.16 1.08 0.99 0.99 1.01 1.01 1.04 1.02 1.02
0.49 0.44 0.41 0.39 0.37 0.34 0.27 0.22 0.22 0.23 0.25 0.32 0.37 0.38 0.38 0.32 0.23 0.24 0.26 0.27 0.31 0.38 0.46 0.66 0.88 1.00 1.19 1.39 1.53 1.55 1.52 1.44 1.36 1.21 1.10 1.04 1.01 1.00 1.01 0.99 1.01 0.97 0.99
0.43 0.42 0.35 0.33 0.30 0.26 0.25 0.23 0.18 0.18 0.20 0.22 0.24 0.25 0.25 0.25 0.21 0.20 0.22 0.28 0.35 0.42 0.51 0.75 0.95 1.07 1.23 1.33 1.42 1.40 1.33 1.26 1.20 1.14 1.09 1.01 0.98 0.98 1.00 0.96 0.91 0.91 0.95
0.33 0.34 0.30 0.25 0.24 0.26 0.27 0.32 0.30 0.23 0.20 0.20 0.19 0.21 0.22 0.22 0.21 0.21 0.23 0.29 0.34 0.42 0.57 0.79 0.98 1.13 1.22 1.25 1.28 1.26 1.21 1.15 1.07 1.03 1.00 0.96 0.91 0.91 0.90 0.85 0.80 0.80 0.80
0.25 0.23 0.22 0.22 0.23 0.24 0.23 0.21 0.26 0.33 0.33 0.29 0.22 0.20 0.20 0.21 0.23 0.25 0.27 0.32 0.43 0.49 0.66 0.82 0.96 1.02 1.09 1.15 1.15 1.14 1.10 1.02 0.95 0.93 0.97 0.95 0.87 0.81 0.76 0.73 0.71 0.68 0.66
0.21 0.20 0.18 0.18 0.18 0.17 0.14 0.12 0.15 0.21 0.27 0.29 0.26 0.23 0.22 0.21 0.25 0.29 0.34 0.41 0.52 0.60 0.69 0.79 0.84 0.89 0.94 0.98 0.98 0.96 0.95 0.92 0.87 0.84 0.84 0.86 0.84 0.75 0.67 0.60 0.56 0.50 0.49
0.16 0.16 0.16 0.15 0.13 0.12 0.11 0.11 0.12 0.15 0.20 0.23 0.26 0.24 0.24 0.32 0.39 0.38 0.35 0.39 0.47 0.57 0.64 0.71 0.72 0.72 0.74 0.78 0.75 0.71 0.73 0.75 0.74 0.75 0.74 0.74 0.75 0.69 0.60 0.53 0.48 0.47 0.47
0.14 0.13 0.13 0.12 0.10 0.09 0.10 0.12 0.12 0.13 0.17 0.21 0.20 0.19 0.27 0.35 0.44 0.41 0.40 0.42 0.47 0.51 0.54 0.58 0.61 0.62 0.58 0.57 0.59 0.60 0.62 0.68 0.71 0.70 0.68 0.66 0.63 0.56 0.49 0.44 0.42 0.40 0.39
0.14 0.14 0.12 0.11 0.10 0.08 0.08 0.09 0.10 0.10 0.13 0.17 0.16 0.16 0.26 0.32 0.40 0.42 0.43 0.47 0.49 0.52 0.52 0.51 0.50 0.52 0.54 0.55 0.56 0.58 0.61 0.63 0.64 0.66 0.64 0.60 0.57 0.51 0.44 0.39 0.38 0.39 0.38
0.16 0.16 0.14 0.13 0.12 0.10 0.08 0.08 0.08 0.08 0.10 0.12 0.15 0.17 0.22 0.32 0.40 0.47 0.50 0.52 0.52 0.50 0.46 0.45 0.48 0.50 0.49 0.48 0.48 0.50 0.50 0.51 0.56 0.62 0.62 0.55 0.48 0.43 0.39 0.37 0.37 0.39 0.39
0.15 0.13 0.12 0.12 0.13 0.12 0.11 0.10 0.09 0.09 0.09 0.11 0.15 0.17 0.21 0.29 0.35 0.45 0.52 0.56 0.58 0.57 0.52 0.49 0.49 0.48 0.45 0.43 0.43 0.43 0.42 0.43 0.44 0.47 0.48 0.43 0.37 0.33 0.32 0.32 0.31 0.32 0.34
0.13 0.12 0.11 0.10 0.10 0.10 0.09 0.10 0.11 0.12 0.13 0.14 0.16 0.17 0.19 0.22 0.28 0.36 0.43 0.48 0.53 0.57 0.59 0.58 0.56 0.49 0.43 0.38 0.35 0.35 0.40 0.41 0.37 0.36 0.41 0.38 0.30 0.29 0.29 0.29 0.29 0.29 0.29
0.12 0.12 0.11 0.10 0.10 0.09 0.08 0.08 0.09 0.10 0.11 0.13 0.15 0.15 0.15 0.18 0.24 0.28 0.30 0.34 0.39 0.46 0.53 0.59 0.61 0.52 0.41 0.35 0.34 0.36 0.34 0.28 0.23 0.25 0.35 0.36 0.31 0.28 0.25 0.25 0.24 0.25 0.28